This demonstration page uses our WeatherBlox Daily Observations layout. Learn more.

Left ArrowRight Arrow

Hourly Observations for November 29, 2022

Temp ( °F °C ) Dew Point ( °F °C ) Humidity (%) Winds ( mph kmh ) Pressure ( in mb ) Visibility ( mi km ) Precip ( " mm )
12:55 am 00:55 Cloudy 42 5.8 28 -2.3 56 56 NE 6 9 29.63 1003 10 16 0.00 0.00
1:55 am 01:55 Cloudy 42 5.8 29 -1.8 58 58 NNE 6 9 29.59 1002 10 16 0.00 0.00
2:55 am 02:55 Cloudy 42 5.8 30 -1.1 61 61 N 6 9 29.58 1002 10 16 0.00 0.00
3:55 am 03:55 Cloudy 42 5.7 30 -1.2 61 61 N 12 19 29.56 1001 10 16 0.00 0.00
4:55 am 04:55 Cloudy 42 5.7 29 -1.9 58 58 N 16 26 29.52 1000 10 16 0.00 0.00
5:50 am 05:50 Cloudy 39 4 27 -3 60 60 N 18 30 29.53 1000 10 16 0.00 0.00
5:55 am 05:55 Cloudy 38 3.2 27 -2.7 65 65 N 14 22 29.53 1000 10 16 0.00 0.00
6:01 am 06:01 Cloudy 37 3 28 -2 70 70 N 15 24 29.54 1000 10 16 0.00 0.00
6:18 am 06:18 Cloudy 36 2 28 -2 75 75 N 22 35 29.54 1000 8 13 0.00 0.00
6:25 am 06:25 Cloudy 36 2 28 -2 75 75 N 15 24 29.54 1000 7 11 0.00 0.00
6:55 am 06:55 Cloudy with Drizzle 33 0.8 29 -1.9 82 82 N 14 22 29.55 1001 7 11 0.02 0.51
7:23 am 07:23 Cloudy with Light Freezing Drizzle 32 0 28 -2 86 86 N 17 28 29.57 1002 3 5 0.00 0.00
7:55 am 07:55 Cloudy with Light Freezing Drizzle 32 0.1 29 -1.8 87 87 N 13 20 29.58 1002 5 8 0.01 0.25
8:40 am 08:40 Cloudy with Light Freezing Drizzle 32 0 28 -2 86 86 NNW 14 22 29.60 1003 7 11 0.00 0.00
8:55 am 08:55 Cloudy with Light Freezing Drizzle 31 -0.5 28 -2.4 87 87 NNW 18 30 29.61 1003 6 10 0.02 0.51
9:59 am 09:59 Cloudy with Light Sleet/Snow 31 -0.5 28 -2.4 87 87 NW 18 30 29.64 1004 5 8 0.01 0.13
10:55 am 10:55 Cloudy with Light Snow 30 -1.2 25 -3.9 82 82 NNW 14 22 29.69 1005 3 5 0.01 0.13
11:55 am 11:55 Cloudy 28 -2 22 -5.5 77 77 NNW 14 22 29.72 1006 10 16 0.01 0.13
12:32 pm 12:32 Cloudy with Light Snow 28 -2 21 -6 74 74 NW 14 22 29.76 1008 10 16 0.00 0.00
12:55 pm 12:55 Cloudy with Light Snow 27 -2.6 20 -6.4 75 75 NW 10 17 29.77 1008 10 16 0.01 0.13
1:55 pm 13:55 Windy with Snow Likely 26 -3.4 19 -7 76 76 NNW 21 33 29.80 1009 3 5 0.01 0.25
2:10 pm 14:10 Windy with Snow Likely 27 -3 19 -7 74 74 NNW 21 33 29.82 1010 9 14 0.00 0.00
2:55 pm 14:55 Cloudy with Light Snow 25 -3.7 17 -8.6 69 69 NW 14 22 29.86 1011 10 16 0.01 0.13
3:55 pm 15:55 Mostly Cloudy 24 -4.3 15 -9.3 68 68 NW 9 15 29.90 1013 10 16 0.00 0.00
4:55 pm 16:55 Cloudy 24 -4.4 13 -10.8 61 61 NW 10 17 29.95 1014 10 16 0.00 0.00
5:55 pm 17:55 Mostly Cloudy 24 -4.5 11 -11.5 58 58 NW 14 22 30.01 1016 10 16 0.00 0.00
6:55 pm 18:55 Mostly Cloudy 24 -4.5 13 -10.3 64 64 WNW 13 20 30.03 1017 10 16 0.00 0.00
7:55 pm 19:55 Mostly Cloudy 24 -4.5 12 -10.9 61 61 WNW 14 22 30.06 1018 10 16 0.00 0.00
8:55 pm 20:55 Partly Cloudy 24 -4.5 12 -11.3 59 59 W 12 19 30.09 1019 10 16 0.00 0.00
9:55 pm 21:55 Partly Cloudy 23 -4.9 11 -11.5 60 60 WNW 12 19 30.15 1021 10 16 0.00 0.00
10:55 pm 22:55 Clear 23 -5 10 -12 58 58 W 12 19 30.14 1021 10 16 0.00 0.00
11:55 pm 23:55 Clear 22 -5.4 9 -12.6 57 57 WNW 13 20 30.17 1022 10 16 0.00 0.00

Powered by AerisWeather